[[{"header":{"parameterUnit":"m.s-1","parameterCategory":1,"la1":30.2991,"la2":30.254,"lo1":-89.0895,"lo2":-89.0444,"dy":0.0017,"dx":0.0017,"nx":28,"ny":28,"refTime":"2023-07-22T21:00:00:Z","depth":0,"parameterNumber":2,"parameterNumberName":"U-component_of_WINDS"},"data":[0,0,0,0,0,0,0,0,0,0,0,0,0,0,0,0,0,0,0,0,0,0,0,0,0,0,0,0,0,0,0,0,0,0,0,0,0,0,0,0,0,0,0,0,0,0,0,0,0,0,0,0,0,0,0,0,0,0,0.7869,0.787,0,0.7943,0.7944,0.7944,0.7949,0.7949,0.7948,0.7947,0.8022,0.8025,0.8027,0,0,0,0,0,0,0,0,0,0,0,0,0,0.7735,0.7737,0.7869,0.787,0.7871,0.7943,0.7944,0.7945,0.795,0.7949,0.7948,0.7947,0.8021,0.8024,0.8028,0,0,0,0,0,0,0,0,0,0,0,0,0,0.7799,0.7738,0.7869,0.7882,0.7884,0.7942,0.7944,0.7945,0.795,0.7948,0.7947,0.7946,0.802,0.8024,0.8028,0.8078,0,0,0.8041,0.8042,0,0,0,0,0,0,0,0,0.7795,0.7804,0.7879,0.7881,0.7883,0.7936,0.7924,0.799,0.795,0.7925,0.7947,0.7946,0.7994,0.8,0.8017,0.8082,0.8085,0.8041,0.8044,0.8045,0.8046,0,0,0,0,0,0,0,0.7791,0.7801,0.7898,0.788,0.7883,0.7885,0.7893,0.7936,0.7965,0.7927,0.7927,0.7936,0.7995,0.8013,0.8019,0.8086,0.8041,0.8045,0.8047,0.8049,0.8199,0.8201,0,0,0,0,0,0,0.7784,0.7797,0.7896,0.79,0.7836,0.7888,0.7897,0.792,0.7965,0.7971,0.7937,0.7936,0.8006,0.8014,0.8021,0.8085,0.8045,0.8049,0.8052,0.8198,0.82,0.8201,0,0,0,0,0,0,0.7781,0.7793,0.7893,0.7849,0.7862,0.7892,0.7918,0.7922,0.794,0.7973,0.7978,0.795,0.8006,0.8015,0.8065,0.8088,0.8051,0.8055,0.8196,0.8198,0.8201,0.8211,0,0,0,0,0,0,0.7777,0.7792,0.781,0.7849,0.7864,0.7934,0.7919,0.7925,0.7947,0.7946,0.7986,0.7991,0.8005,0.8059,0.8069,0.8093,0.8058,0.8194,0.8197,0.82,0.8209,0.8214,0.8218,0,0,0,0,0,0.7772,0.7809,0.7811,0.7823,0.7888,0.7936,0.7944,0.796,0.7949,0.7968,0.799,0.799,0.8084,0.8064,0.8075,0.81,0.8193,0.8196,0.82,0.8207,0.8213,0.8218,0,0,0,0,0,0,0.7771,0.7815,0.7817,0.7868,0.7898,0.7936,0.7961,0.7965,0.7999,0.7997,0.8015,0.8024,0.8073,0.8092,0.8069,0.8153,0.8137,0.8143,0.8139,0.8145,0.8149,0.8143,0.8061,0,0,0,0,0,0.7777,0.7812,0.7848,0.789,0.7905,0.7931,0.7952,0.7962,0.7994,0.8006,0.8031,0.8063,0.81,0.8123,0.8158,0.8212,0.8222,0.8236,0.824,0.8243,0.8248,0.8281,0.8288,0.8213,0.8213,0.8212,0,0,0.7789,0.7817,0.7838,0.789,0.7915,0.7951,0.7941,0.7979,0.8007,0.8012,0.8061,0.8081,0.8117,0.817,0.8194,0.8187,0.8272,0.8248,0.825,0.8253,0.8285,0.8292,0.8298,0.8215,0.8214,0.8214,0,0,0.783,0.7854,0.7892,0.7918,0.7956,0.7974,0.7983,0.8022,0.8035,0.8085,0.809,0.8124,0.8186,0.8212,0.8234,0.8289,0.8291,0.83,0.8322,0.8354,0.8359,0.8365,0.8386,0.8393,0.8305,0.8305,0.8305,0,0.7839,0.7894,0.7911,0.7951,0.7975,0.7982,0.8022,0.8046,0.8094,0.811,0.8102,0.8183,0.8207,0.8267,0.8281,0.8298,0.831,0.8295,0.8357,0.8363,0.8368,0.8388,0.8396,0.8306,0.8305,0.8305,0.8305,0,0.7906,0.7944,0.7971,0.8018,0.8045,0.8084,0.8108,0.8134,0.8142,0.8161,0.8213,0.8243,0.8286,0.8301,0.8309,0.8364,0.8358,0.8353,0.8337,0.8376,0.8395,0.8403,0.8307,0.8307,0.8306,0.8306,0,0,0.7945,0.8004,0.8013,0.8036,0.808,0.811,0.8151,0.8194,0.8217,0.825,0.8286,0.834,0.8337,0.8361,0.8373,0.84,0.8445,0.8393,0.8394,0.8402,0.8509,0.8512,0.8521,0.8446,0.8448,0.8449,0.8506,0,0.7992,0.8064,0.8083,0.8145,0.8182,0.8191,0.8228,0.8259,0.8279,0.8314,0.8335,0.8374,0.8366,0.8381,0.8409,0.8433,0.8466,0.8429,0.8481,0.8482,0.8471,0.8531,0.8534,0.8586,0.8514,0.8515,0.8516,0,0.8054,0.8091,0.8157,0.82,0.8216,0.8247,0.829,0.8323,0.836,0.8373,0.8402,0.8412,0.8456,0.8439,0.8501,0.8476,0.8498,0.8514,0.8516,0.8521,0.8501,0.8538,0.8603,0.8611,0.8528,0.8527,0.8526,0,0.8078,0.8144,0.8193,0.8212,0.8262,0.8285,0.8307,0.8343,0.8368,0.8406,0.8423,0.8465,0.8488,0.8521,0.8542,0.8527,0.8604,0.8587,0.8616,0.8616,0.8631,0.863,0.8701,0.8645,0.8645,0.8645,0.8645,0,0.8128,0.8169,0.8205,0.8234,0.8281,0.8303,0.8348,0.8371,0.8404,0.8439,0.845,0.8483,0.8509,0.8547,0.8564,0.8614,0.8624,0.8637,0.8641,0.8636,0.8634,0.865,0.8647,0.8647,0.8647,0.8646,0.8646,0,0.8162,0.8187,0.8242,0.8286,0.8298,0.8331,0.8369,0.8399,0.842,0.8465,0.8477,0.851,0.8555,0.858,0.8636,0.8648,0.8705,0.8706,0.8692,0.8694,0.8722,0.8719,0.8805,0.8818,0.8754,0.8754,0.8755,0,0.8192,0.8224,0.8272,0.8297,0.832,0.8359,0.8386,0.841,0.8438,0.8485,0.851,0.8556,0.8593,0.8665,0.8694,0.8738,0.8741,0.8769,0.8748,0.8743,0.8743,0.8741,0.8745,0.8772,0.8773,0.8773,0.8774,0,0.8243,0.8255,0.8293,0.8337,0.8369,0.8405,0.844,0.846,0.849,0.8521,0.8567,0.8597,0.8656,0.8701,0.8748,0.8772,0.8778,0.878,0.879,0.8785,0.8775,0.8782,0.8702,0.8778,0.8778,0.8777,0.8777,0.8777,0.8276,0.8306,0.8346,0.8389,0.8418,0.8452,0.8483,0.851,0.8549,0.8599,0.8611,0.866,0.87,0.8763,0.8789,0.8828,0.8823,0.8836,0.884,0.8842,0.8844,0.8769,0.8837,0.8837,0.8837,0.8837,0.8837,0,0.8329,0.8356,0.8395,0.8445,0.848,0.8484,0.8525,0.8553,0.8597,0.8633,0.8671,0.8726,0.8772,0.8806,0.8853,0.8878,0.8883,0.889,0.8888,0.8894,0.8845,0.8833,0.8886,0.8886,0.8886,0.8886,0.8886,0.8886,0.836,0.8411,0.8429,0.8496,0.8522,0.8571,0.8594,0.8626,0.8655,0.8716,0.8755,0.8777,0.8813,0.8864,0.8906,0.8915,0.8932,0.8939,0.8949,0.8903,0.8897,0.8892,0.8881,0.8943,0.8943,0.8995,0.8995,0.8996]},{"header":{"parameterUnit":"m.s-1","parameterCategory":1,"la1":30.2991,"la2":30.254,"lo1":-89.0895,"lo2":-89.0444,"dy":0.0017,"dx":0.0017,"nx":28,"ny":28,"refTime":"2023-07-22T21:00:00:Z","depth":0,"parameterNumber":3,"parameterNumberName":"V-component_of_WINDS"},"data":[0,0,0,0,0,0,0,0,0,0,0,0,0,0,0,0,0,0,0,0,0,0,0,0,0,0,0,0,0,0,0,0,0,0,0,0,0,0,0,0,0,0,0,0,0,0,0,0,0,0,0,0,0,0,0,0,0,0,-2.335,-2.335,0,-2.3358,-2.3359,-2.3359,-2.3341,-2.3341,-2.334,-2.334,-2.3348,-2.3348,-2.3349,0,0,0,0,0,0,0,0,0,0,0,0,0,-2.3316,-2.3317,-2.335,-2.335,-2.335,-2.3358,-2.3359,-2.3359,-2.3341,-2.3341,-2.334,-2.3339,-2.3347,-2.3348,-2.3349,0,0,0,0,0,0,0,0,0,0,0,0,0,-2.3329,-2.3317,-2.335,-2.3342,-2.3342,-2.3358,-2.3359,-2.3359,-2.3341,-2.3341,-2.334,-2.3339,-2.3347,-2.3348,-2.3349,-2.3373,0,0,-2.3353,-2.3353,0,0,0,0,0,0,0,0,-2.3328,-2.333,-2.3343,-2.3343,-2.3342,-2.3348,-2.335,-2.3364,-2.3342,-2.3342,-2.3339,-2.3339,-2.3348,-2.3349,-2.3353,-2.3374,-2.3374,-2.3353,-2.3354,-2.3354,-2.3354,0,0,0,0,0,0,0,-2.3327,-2.3329,-2.3353,-2.3343,-2.3343,-2.3338,-2.3339,-2.3352,-2.335,-2.3341,-2.334,-2.3342,-2.3348,-2.3352,-2.3353,-2.3374,-2.3353,-2.3354,-2.3355,-2.3355,-2.3413,-2.3414,0,0,0,0,0,0,-2.3327,-2.3329,-2.3353,-2.3353,-2.3333,-2.3339,-2.334,-2.3347,-2.3349,-2.3349,-2.3342,-2.3341,-2.335,-2.3352,-2.3353,-2.338,-2.3354,-2.3355,-2.3356,-2.3412,-2.3413,-2.3414,0,0,0,0,0,0,-2.3327,-2.333,-2.3353,-2.3341,-2.3343,-2.3341,-2.3348,-2.3348,-2.3351,-2.335,-2.3349,-2.3347,-2.335,-2.3352,-2.3368,-2.338,-2.3356,-2.3357,-2.3411,-2.3413,-2.3414,-2.3434,0,0,0,0,0,0,-2.3326,-2.333,-2.3339,-2.3341,-2.3344,-2.3368,-2.3349,-2.3348,-2.3353,-2.3351,-2.3354,-2.3354,-2.3349,-2.3366,-2.3369,-2.3381,-2.3357,-2.341,-2.3412,-2.3414,-2.3433,-2.3436,-2.3439,0,0,0,0,0,-2.3325,-2.3345,-2.334,-2.3343,-2.3356,-2.3369,-2.337,-2.3365,-2.3355,-2.3364,-2.3362,-2.3354,-2.3379,-2.3368,-2.3371,-2.3384,-2.3409,-2.3411,-2.3413,-2.3431,-2.3436,-2.3439,0,0,0,0,0,0,-2.3344,-2.3345,-2.3339,-2.3361,-2.3365,-2.3366,-2.3377,-2.337,-2.3377,-2.3375,-2.3367,-2.3368,-2.3386,-2.3386,-2.3375,-2.3406,-2.3392,-2.3395,-2.3405,-2.3409,-2.3412,-2.3411,-2.3358,0,0,0,0,0,-2.3351,-2.3362,-2.3362,-2.3381,-2.3383,-2.338,-2.3385,-2.338,-2.3384,-2.3386,-2.3386,-2.339,-2.3398,-2.3404,-2.3412,-2.3433,-2.3433,-2.3443,-2.3446,-2.3449,-2.3451,-2.3461,-2.3465,-2.3421,-2.3421,-2.3421,0,0,-2.3366,-2.3367,-2.3374,-2.3385,-2.3387,-2.3397,-2.3381,-2.3393,-2.34,-2.3387,-2.3403,-2.3403,-2.3406,-2.3425,-2.3433,-2.3426,-2.3463,-2.3452,-2.3454,-2.3454,-2.3463,-2.3467,-2.3471,-2.3422,-2.3422,-2.3422,0,0,-2.3396,-2.3399,-2.3414,-2.3417,-2.3421,-2.3419,-2.3422,-2.3424,-2.3424,-2.3439,-2.3429,-2.3437,-2.3452,-2.3455,-2.3458,-2.3489,-2.348,-2.3491,-2.3508,-2.3518,-2.3521,-2.3524,-2.3534,-2.3537,-2.3494,-2.3494,-2.3494,0,-2.3413,-2.3429,-2.3423,-2.3435,-2.3439,-2.3428,-2.3443,-2.3446,-2.3452,-2.3455,-2.3447,-2.3465,-2.3466,-2.3485,-2.3492,-2.3496,-2.3498,-2.3491,-2.3522,-2.3525,-2.3527,-2.3536,-2.354,-2.3495,-2.3495,-2.3495,-2.3495,0,-2.3449,-2.3459,-2.3471,-2.3477,-2.3483,-2.3496,-2.3492,-2.3498,-2.3493,-2.3491,-2.3506,-2.3507,-2.3515,-2.3519,-2.3514,-2.3536,-2.3531,-2.3523,-2.3508,-2.3533,-2.3541,-2.3544,-2.3497,-2.3496,-2.3496,-2.3496,0,0,-2.3492,-2.3494,-2.3498,-2.35,-2.3503,-2.3511,-2.3523,-2.353,-2.3535,-2.354,-2.3549,-2.3562,-2.3553,-2.3557,-2.3552,-2.3561,-2.3583,-2.3551,-2.3551,-2.3556,-2.3605,-2.3611,-2.3615,-2.3578,-2.3579,-2.3579,-2.3604,0,-2.3521,-2.3542,-2.3537,-2.3558,-2.3567,-2.3556,-2.3566,-2.3569,-2.3567,-2.3574,-2.3573,-2.3581,-2.357,-2.3572,-2.358,-2.3579,-2.3593,-2.3577,-2.3585,-2.3586,-2.3583,-2.3619,-2.3625,-2.3649,-2.3608,-2.3608,-2.3609,0,-2.3558,-2.3563,-2.3585,-2.3585,-2.3588,-2.3598,-2.3603,-2.361,-2.3613,-2.3611,-2.3615,-2.3608,-2.3619,-2.3606,-2.3621,-2.361,-2.3613,-2.3613,-2.3614,-2.3613,-2.3598,-2.3618,-2.3657,-2.366,-2.3614,-2.3614,-2.3613,0,-2.3585,-2.3598,-2.3612,-2.3614,-2.3615,-2.3622,-2.3622,-2.3624,-2.3628,-2.3632,-2.3635,-2.3641,-2.3644,-2.3648,-2.3643,-2.3634,-2.3658,-2.3645,-2.3656,-2.3656,-2.366,-2.366,-2.3698,-2.3665,-2.3665,-2.3665,-2.3665,0,-2.3617,-2.363,-2.3624,-2.3632,-2.3646,-2.364,-2.3654,-2.3653,-2.3655,-2.3662,-2.3654,-2.3661,-2.3654,-2.3661,-2.3657,-2.3669,-2.3671,-2.3669,-2.3667,-2.3669,-2.3669,-2.367,-2.3667,-2.3666,-2.3666,-2.3665,-2.3665,0,-2.3649,-2.3646,-2.366,-2.3659,-2.366,-2.367,-2.3669,-2.3676,-2.3674,-2.3684,-2.3686,-2.3682,-2.3689,-2.3685,-2.3692,-2.369,-2.3705,-2.3702,-2.3704,-2.3702,-2.3713,-2.3712,-2.3753,-2.3757,-2.3722,-2.3723,-2.3723,0,-2.367,-2.3679,-2.3679,-2.3684,-2.3685,-2.3692,-2.3696,-2.369,-2.3694,-2.3697,-2.3704,-2.371,-2.3715,-2.3726,-2.3724,-2.3729,-2.3726,-2.374,-2.3726,-2.3727,-2.3724,-2.3723,-2.3723,-2.3742,-2.3742,-2.3743,-2.3743,0,-2.3705,-2.3702,-2.3708,-2.3713,-2.3718,-2.3721,-2.3724,-2.3728,-2.3722,-2.3727,-2.3734,-2.3738,-2.3745,-2.3751,-2.3755,-2.3755,-2.3747,-2.3747,-2.375,-2.3751,-2.3751,-2.3749,-2.3709,-2.3746,-2.3746,-2.3745,-2.3745,-2.3745,-2.3731,-2.3738,-2.3739,-2.3745,-2.3747,-2.3749,-2.3756,-2.3754,-2.376,-2.3764,-2.3761,-2.3769,-2.377,-2.3774,-2.3776,-2.3781,-2.3775,-2.378,-2.378,-2.3781,-2.3782,-2.3751,-2.3782,-2.3782,-2.3782,-2.3782,-2.3782,0,-2.3764,-2.3764,-2.377,-2.3773,-2.3778,-2.3771,-2.3774,-2.3778,-2.3785,-2.3786,-2.3791,-2.3798,-2.3804,-2.3802,-2.3806,-2.3811,-2.3808,-2.3812,-2.3811,-2.3811,-2.3788,-2.3784,-2.3815,-2.3815,-2.3815,-2.3815,-2.3815,-2.3815,-2.3782,-2.3793,-2.3791,-2.3802,-2.3802,-2.3809,-2.3811,-2.3813,-2.3814,-2.3823,-2.3827,-2.3826,-2.3826,-2.383,-2.3834,-2.3834,-2.3835,-2.3841,-2.3839,-2.3816,-2.3813,-2.381,-2.3806,-2.3842,-2.3842,-2.3861,-2.3862,-2.3862]}]]